Погода в Бекове

Россия / Кемеровская область (Кузбасс)     54°21′59″N   86°11′31″E
темп.,
°C
ветер,
м/с
пор.,
м/с
влажн.,
%
обл.,
%
осадки,
мм/ч
давл.,
гПа
погр.,
м
25 июня, сб
сб2501:00+14юз35935 0.5 100883
04:00+14ююз34945 0.0 100781
07:00+17юз4108950 0.0 1007309
10:00+22юз586919 0.3 1007746
13:00+24зюз586734 1.8 10061383
16:00+26зюз686245 0.4 10061771
19:00+24юз51068100 0.4 1005441
22:00+21юз51278100 0.0 1005323
26 июня, вс
вс2601:00+19юз3889100 0.0 1004145
04:00+18ю349296 0.2 100471
07:00+19ююв410875 0.2 1002231
10:00+25ю511645 0.0 1001762
13:00+29ю69510 0.0 9991105
16:00+29ююз7115487 0.0 998957
19:00+27ююз511645 0.0 996403
22:00+24ююз6135916 0.0 997307
27 июня, пн
пн2701:00+19юз4108226 0.1 999188
04:00+17зюз229620 1.9 100142
07:00+18юв3498100 15.3 1000107
10:00+22ююв568078 0.1 1000497
13:00+28ююв585832 0.1 9971419
16:00+28юз69586 0.1 9941625
19:00+17юз61390100 18.1 998400
22:00+17зюз51195100 0.9 1000489
28 июня, вт
вт2801:00+12зюз410896 0.9 1003380
04:00+9юз24940 0.0 100587
07:00+11зюз410870 0.0 1007485
10:00+15з576617 0.0 10071130
13:00+18з465550 0.0 10071717
16:00+20зсз345481 0.0 10071712
19:00+17ссв237690 0.1 1007249
22:00+12св249015 0.2 100973
29 июня, ср
ср2901:00+10ю009174 0.2 100810
04:00+10юв229172 0.0 100821
07:00+12ююв24892 0.0 1007153
10:00+18ююв34670 0.0 1005929
13:00+22юв4652100 0.0 10021644
16:00+24ююз3649100 0.0 10001622
19:00+22юв256999 0.0 998205
22:00+17ю4127816 0.1 996225